TimeCST,TemperatureF,Dew PointF,Humidity,Sea Level PressureIn,VisibilityMPH,Wind Direction,Wind SpeedMPH,Gust SpeedMPH,PrecipitationIn,Events,Conditions,WindDirDegrees,DateUTC
12:53 AM,53.1,48.0,83,30.13,10.0,NE,3.5,-,N/A,,Overcast,40,2012-11-05 06:53:00
1:53 AM,51.1,46.9,86,30.11,10.0,NE,3.5,-,N/A,,Mostly Cloudy,50,2012-11-05 07:53:00
2:53 AM,51.1,46.9,86,30.10,10.0,Calm,Calm,-,N/A,,Mostly Cloudy,0,2012-11-05 08:53:00
3:53 AM,48.0,46.9,96,30.10,10.0,Calm,Calm,-,N/A,,Mostly Cloudy,0,2012-11-05 09:53:00
4:53 AM,52.0,46.9,83,30.10,10.0,ESE,4.6,-,N/A,,Mostly Cloudy,120,2012-11-05 10:53:00
5:53 AM,52.0,48.0,86,30.09,10.0,Calm,Calm,-,N/A,,Overcast,0,2012-11-05 11:53:00
6:35 AM,53.6,48.2,82,30.08,8.0,Calm,Calm,-,0.01,Rain-Thunderstorm,Thunderstorms and Rain,0,2012-11-05 12:35:00
6:53 AM,52.0,48.9,89,30.08,3.0,ESE,8.1,-,0.05,Rain,Heavy Rain,120,2012-11-05 12:53:00
7:03 AM,51.8,48.2,88,30.09,4.0,North,4.6,-,0.03,Rain-Thunderstorm,Rain,10,2012-11-05 13:03:00
7:15 AM,51.8,48.2,88,30.09,5.0,NE,4.6,-,0.04,Rain-Thunderstorm,Rain,40,2012-11-05 13:15:00
7:53 AM,51.1,48.9,92,30.11,2.5,NE,3.5,-,0.10,Rain-Thunderstorm,Heavy Rain,50,2012-11-05 13:53:00
8:11 AM,51.8,48.2,88,30.09,5.0,East,5.8,-,0.06,Rain-Thunderstorm,Rain,90,2012-11-05 14:11:00
8:31 AM,51.8,50.0,94,30.07,5.0,East,9.2,-,0.08,Rain,Light Rain,100,2012-11-05 14:31:00
8:53 AM,52.0,48.9,89,30.10,10.0,East,9.2,-,0.08,,Mostly Cloudy,90,2012-11-05 14:53:00
9:53 AM,53.1,50.0,89,30.10,9.0,SE,6.9,-,N/A,,Overcast,140,2012-11-05 15:53:00
10:13 AM,53.6,50.0,88,30.07,10.0,SE,9.2,-,N/A,,Overcast,140,2012-11-05 16:13:00
10:53 AM,53.1,51.1,93,30.07,9.0,SE,10.4,-,0.01,,Overcast,140,2012-11-05 16:53:00
11:53 AM,54.0,51.1,90,30.04,10.0,East,5.8,-,N/A,,Overcast,100,2012-11-05 17:53:00
12:53 PM,55.0,51.1,86,30.02,10.0,SE,6.9,-,N/A,,Overcast,140,2012-11-05 18:53:00
1:53 PM,55.9,51.1,84,30.00,10.0,SE,4.6,-,N/A,,Overcast,130,2012-11-05 19:53:00
2:53 PM,55.9,51.1,84,30.00,10.0,Calm,Calm,-,N/A,,Overcast,0,2012-11-05 20:53:00
3:53 PM,55.9,52.0,87,30.00,10.0,Calm,Calm,-,N/A,,Overcast,0,2012-11-05 21:53:00
4:53 PM,55.0,52.0,89,29.96,10.0,SE,9.2,-,N/A,,Overcast,140,2012-11-05 22:53:00
5:00 PM,55.4,51.8,88,29.93,9.0,SE,6.9,-,N/A,,Overcast,130,2012-11-05 23:00:00
5:53 PM,54.0,52.0,93,30.00,9.0,Calm,Calm,-,N/A,,Mostly Cloudy,0,2012-11-05 23:53:00
6:02 PM,53.6,51.8,94,29.99,8.0,NNW,3.5,-,N/A,,Mostly Cloudy,340,2012-11-06 00:02:00
6:53 PM,55.0,52.0,89,30.03,8.0,NNW,4.6,-,N/A,,Overcast,340,2012-11-06 00:53:00
7:22 PM,53.6,51.8,94,30.01,7.0,North,5.8,-,N/A,,Overcast,360,2012-11-06 01:22:00
7:53 PM,54.0,52.0,93,30.03,9.0,NNE,8.1,-,N/A,,Overcast,20,2012-11-06 01:53:00
8:51 PM,53.6,51.8,94,30.02,8.0,Calm,Calm,-,N/A,,Overcast,0,2012-11-06 02:51:00
8:53 PM,54.0,51.1,90,30.04,8.0,Calm,Calm,-,N/A,,Overcast,0,2012-11-06 02:53:00
9:53 PM,53.1,51.1,93,30.04,7.0,Calm,Calm,-,N/A,,Overcast,0,2012-11-06 03:53:00
10:53 PM,53.1,51.1,93,30.04,5.0,NNE,3.5,-,N/A,,Overcast,20,2012-11-06 04:53:00
11:53 PM,53.1,51.1,93,30.03,6.0,Calm,Calm,-,N/A,,Overcast,0,2012-11-06 05:53:00